#timestamp,LO_Frequency,Hit,StdDev 
1513656015.9,286047003.2,N
1513656035.7,286047001.4,N
1513656055.6,286047004.4,N
1513656075.4,286046997.7,N
1513656095.2,286047001.2,N
1513656115.1,286047002.7,N
1513656116.0,286047002.7,N
1513656135.8,286047003.4,N
1513656155.6,286047005.5,N
1513656175.5,286047007.4,N
1513656195.3,286047002.6,N
1513656215.2,286046998.3,N
1513656235.0,286046998.4,N
1513656235.9,286046998.4,N
1513656255.7,286046998.7,N
1513656275.6,286046996.8,N
1513656295.4,286046995.2,N
1513656315.3,286046996.9,N
1513656335.1,286046997.3,N
1513656355.8,286046995.1,N
1513656375.7,286046996.6,N
1513656395.5,286046999.1,N
1513656415.4,286046998.7,N
1513656435.2,286046996.7,N
1513656455.0,286047000.3,N
1513656455.9,286047000.3,N
1513656475.8,286047002.4,N
1513656495.6,286046998.7,N
1513656515.4,286047000.6,N
1513656535.3,286046999.2,N
1513656555.1,286047002.4,N
1513656575.9,286047002.1,N
1513656595.7,286047003.8,N
1513656615.5,286047000.3,N
1513656635.4,286047001.5,N
1513656655.2,286047004.3,N
1513656675.1,286047005.6,N
1513656676.0,286047005.6,N
1513656695.8,286047005.4,N
1513656715.6,286047001.8,N
1513656735.5,286047006.7,N
1513656755.3,286047005.0,N
1513656775.2,286047005.6,N
1513656795.9,286047006.0,N
1513656815.7,286047003.4,N
1513656835.6,286047001.5,N
1513656855.4,286046999.9,N
1513656875.2,286046998.4,N
1513656895.1,286047001.1,N
1513656896.0,286047001.1,N
1513656915.8,286047002.4,N
1513656935.7,286047002.4,N
1513656955.5,286046999.7,N
1513656975.3,286047001.0,N
1513656995.2,286047000.0,N
1513657015.0,286047001.5,N
1513657015.9,286047001.5,N
1513657035.8,286047003.8,N
1513657055.6,286047002.9,N
1513657075.4,286047004.0,N
1513657095.3,286047004.4,N
1513657115.1,286047006.0,N
1513657135.8,286047006.0,N
1513657155.7,286047002.6,N
1513657175.5,286047000.8,N
1513657195.4,286046999.7,N
1513657215.2,286047002.3,N
1513657235.0,286046999.9,N
1513657235.9,286046999.9,N
1513657255.8,286046997.2,N
1513657275.6,286047001.6,N
1513657295.5,286046998.7,N
1513657315.3,286046998.8,N
1513657335.1,286046998.9,N
1513657355.9,286046998.6,N
1513657375.7,286047003.0,N
1513657395.5,286047005.9,N
1513657415.4,286047003.8,N
1513657435.2,286047002.3,N
1513657455.1,286047004.2,N
1513657456.0,286047004.2,N
1513657475.8,286047002.5,N
1513657495.6,286047004.1,N
1513657515.5,286047001.5,N
1513657535.3,286047002.0,N
1513657555.2,286046998.6,N
1513657575.9,286047005.2,N
1513657595.7,286047004.0,N
1513657615.6,286047003.2,N
1513657635.4,286047004.6,N
1513657655.2,286047005.9,N
1513657675.1,286047001.0,N
1513657676.0,286047001.0,N
1513657695.8,286047002.1,N
1513657715.7,286046999.5,N
1513657735.5,286046998.4,N
1513657755.3,286047002.4,N
1513657775.2,286047001.9,N
1513657795.0,286047003.5,N
1513657795.9,286047003.5,N
1513657815.7,286047005.6,N
1513657835.6,286047001.8,N
1513657855.4,286047002.8,N
1513657875.3,286046999.5,N
1513657895.1,286046997.3,N
1513657915.8,286046998.3,N
1513657935.7,286046995.7,N
1513657955.5,286046998.9,N
1513657975.4,286047004.3,N
1513657995.2,286047007.2,N
1513658015.0,286047001.6,N
1513658015.9,286047001.6,N
1513658035.8,286047000.5,N
1513658055.6,286046995.0,N
1513658075.4,286047000.6,N
1513658095.3,286046998.4,N
1513658115.1,286046996.7,N
1513658135.9,286046997.0,N
1513658155.7,286047000.0,N
1513658175.5,286046998.3,N
1513658195.4,286047003.4,N
1513658215.2,286047005.8,N
1513658235.1,286046999.7,N
1513658236.0,286046999.7,N
1513658255.8,286047002.0,N
1513658275.6,286047005.8,N
1513658295.5,286047003.6,N
1513658315.3,286047011.9,Y
1513658335.2,286047000.7,P
1513658355.9,286046996.9,P
1513658375.7,286046998.9,N
1513658395.6,286047001.1,N
1513658415.4,286046996.9,N
1513658435.2,286046996.7,N
1513658455.1,286046993.6,Y
1513658456.0,286046993.6,P
1513658475.8,286046996.3,N
1513658495.7,286046997.4,N
1513658515.5,286046996.6,N
1513658535.3,286046993.7,Y
1513658555.2,286047001.7,P
1513658575.0,286047007.1,N
1513658575.9,286047007.1,N
1513658595.8,286046999.7,N
1513658615.6,286046998.2,N
1513658635.4,286046997.2,N
1513658655.3,286046997.4,N
1513658675.1,286046995.0,N
1513658695.9,286046994.1,N
1513658715.7,286046992.1,N
1513658735.5,286046995.6,N
1513658755.4,286046993.6,N
1513658775.2,286046994.3,N
1513658795.0,286046994.5,N
1513658795.9,286046994.5,N
1513658815.8,286046992.1,N
1513658835.6,286046992.1,N
1513658855.5,286046993.7,N
1513658875.3,286046991.9,N
1513658895.1,286046994.2,N
1513658915.9,286046991.9,N
1513658935.7,286046995.8,N
1513658955.6,286046996.5,N
1513658975.4,286047003.5,N
1513658995.2,286047001.9,N
1513659015.1,286047005.4,N
1513659016.0,286047005.4,N
1513659035.8,286047005.3,N
1513659055.7,286047003.4,N
1513659075.5,286047003.8,N
1513659095.3,286047002.7,N
1513659115.2,286046998.1,N
1513659135.0,286047002.8,N
1513659135.9,286047002.8,N
1513659155.7,286047002.3,N
1513659175.6,286047000.1,N
1513659195.4,286047000.8,N
1513659215.3,286047000.7,N
1513659235.1,286047000.6,N
1513659236.0,286047000.6,N
1513659255.8,286047001.6,N
1513659275.7,286047003.2,N
1513659295.5,286047001.4,N
1513659315.3,286047001.0,N
1513659335.2,286046996.9,N
1513659355.0,286046998.8,N
1513659355.9,286046998.8,N
1513659375.8,286046998.7,N
1513659395.6,286046998.3,N
1513659415.4,286047002.6,N
1513659435.3,286047000.4,N
1513659455.1,286046999.0,N
1513659475.9,286046998.8,N
1513659495.7,286047000.7,N
1513659515.5,286047000.3,N
1513659535.4,286047000.9,N
1513659555.2,286046999.9,N
1513659575.0,286046995.2,N
1513659575.9,286046995.2,N
1513659595.8,286046999.5,N
